Погода в Марсятах

Россия / Свердловская область     60°02′38″N   60°28′39″E
темп.,
°C
ветер,
м/с
пор.,
м/с
влажн.,
%
обл.,
%
осадки,
мм/ч
давл.,
гПа
погр.,
м
21 января, чт
чт2123:00−18вюв1298100 0.9 101026
02:00−19в1198100 0.4 101020
05:00−19с1298100 0.8 101079
08:00−19ссз2498100 0.4 1009145
11:00−20ссз3795100 0.5 1010346
14:00−21ссз369489 0.0 1010340
17:00−25ссз259789 0.1 101190
20:00−27ссз379650 0.0 1012182
22 января, пт
пт2223:00−27ссз389667 0.0 1014230
02:00−28ссз399689 0.0 1015258
05:00−27ссз499589 0.1 1017422
08:00−27с4995100 0.1 1019515
11:00−27с4894100 0.3 1021491
14:00−27с4891100 0.1 1023553
17:00−29с3994100 0.1 1026412
20:00−33с399478 0.0 1030335
23 января, сб
сб2323:00−36ссз249548 0.0 103282
02:00−38ссз22953 0.0 103419
05:00−38с119519 0.0 103518
08:00−37ююв009485 0.0 103619
11:00−34ююв119391 0.0 103570
14:00−31юв2392100 0.0 1035173
17:00−31юв2496100 0.0 1034157
20:00−31юв2495100 0.0 1034183
24 января, вс
вс2423:00−30юв1397100 0.0 1033179
02:00−30в1398100 0.2 1033176
05:00−30в1298100 0.3 1033162
08:00−30в1398100 0.1 1033183
11:00−29вюв2398100 0.5 1032298
14:00−27вюв2397100 0.9 1031381
17:00−27вюв2499100 2.0 1029349
20:00−26юв2498100 0.8 1029310
25 января, пн
пн2523:00−25вюв1297100 1.0 1028236
02:00−25всв1199100 0.3 102842
05:00−27ссв1299100 0.4 102926
08:00−28с1298100 0.0 103021
11:00−26ссв1197100 0.1 1031121
14:00−24в1192100 0.0 1031314
17:00−25в1198100 0.1 103119
20:00−26вюв1199100 0.1 103220